{"data":{"norad_id":49059,"epoch":"2026-09-20T22:37:18.955200Z","epoch_age_seconds":62846,"freshness":"FRESH","line1":"1 49059U 21070A   26263.94258050  .00000132  00000+0  89297-4 0  9993","line2":"2 49059  89.0116 208.2389 0003754  81.8493 278.3108 13.94405372261273","mean_motion":13.94405372,"eccentricity":0.0003754,"inclination_deg":89.0116,"raan_deg":208.2389,"arg_perigee_deg":81.8493,"mean_anomaly_deg":278.3108,"bstar":8.9297e-5,"rev_number":26127,"period_min":103.26982589967,"perigee_km":910.49592254755,"apogee_km":915.97028322079,"semimajor_km":7291.3701028842,"source":"CELESTRAK","updated_at":"2026-09-21T09:00:07.944618Z"}}